Location: Unspecified
(49.8670°N, 0.0000°E)
Time: 17:14:29
(UTC+00:00)

ISS - Pass Details

Date: 02 June 2019
Orbit: 407 x 418 km, 51.6° (Epoch: 25 June)

Event Time Altitude Azimuth Distance (km) Brightness Sun altitude
Rises 21:12:26 0° 285° (WNW) 2,356 1.0 -9.1°
Reaches altitude 10° 21:14:50 10° 269° (W) 1,492 -0.4 -9.3°
Maximum altitude 21:17:27 21° 218° (SW) 983 -2.0 -9.6°
Enters shadow 21:19:42 12° 170° (S) 1,375 -1.7 -9.8°
